Location: Summit Observatory
(39.5293°N, 75.7290°W)
Time: 14:10:54
(UTC-05:00)

Amateur Radio Satellites - All Passes

Search period start: 19 February 2017 13:40
Search period end: 20 February 2017 13:40
Location: Summit Observatory, 39.5293°N, 75.7290°W

Satellite Date Start Highest point End Downlink Frequencies (MHz)
Time Altitude Azimuth
BEESAT 19 Feb 13:43:27 13:45:54 14° 91° (E) 13:48:19 436.000
YUBILEINY 19 Feb 13:52:12 13:52:53 10° 304° (NW) 13:53:33 435.215
VELOX 1 19 Feb 13:56:42 13:57:09 10° 298° (WNW) 13:57:36 145.980
AO-85 19 Feb 13:57:38 14:00:59 26° 50° (NE) 14:04:21 145.980
Tancredo 1 19 Feb 13:59:23 13:59:46 10° 5° (N) 14:00:09 437.200
DX 1 19 Feb 14:08:58 14:11:31 15° 296° (WNW) 14:14:04 434.975-435.025
UKube-1 19 Feb 14:35:57 14:37:16 11° 298° (WNW) 14:38:33 .
Gurwin Techsat 1B 19 Feb 14:52:25 14:53:51 11° 271° (W) 14:55:16 435.225
ISS 19 Feb 14:53:40 14:55:34 14° 16° (NNE) 14:57:26 437.550
MOZHAYETS 4 19 Feb 15:03:02 15:07:13 33° 97° (E) 15:11:22
AO-7 19 Feb 15:04:23 15:12:43 70° 255° (WSW) 15:21:05 .
ITUPSAT 1 19 Feb 15:08:00 15:12:50 79° 285° (WNW) 15:17:36 437.325
ITAMSAT 1 19 Feb 15:16:46 15:21:23 32° 263° (W) 15:26:03 435.822/435.867
BEESAT 19 Feb 15:19:18 15:24:01 58° 287° (WNW) 15:28:42 436.000
Tancredo 1 19 Feb 15:34:25 15:37:01 22° 25° (NNE) 15:39:37 437.200
AO-85 19 Feb 15:38:04 15:41:15 24° 247° (WSW) 15:44:30 145.980
CUBESAT XI-V 19 Feb 15:45:32 15:48:00 14° 91° (E) 15:50:27 437.345
BEESAT 3 19 Feb 15:54:36 15:57:59 25° 50° (NE) 16:01:20 437.485
BEESAT 2 19 Feb 16:18:07 16:21:09 20° 47° (NE) 16:24:11 435.950
XW-2F 19 Feb 16:21:36 16:23:17 13° 65° (ENE) 16:24:57 145.980 - 146.000
XW-2D 19 Feb 16:21:49 16:23:44 13° 66° (ENE) 16:25:39 145.860 - 145.880
KKS-1 19 Feb 16:22:41 16:27:07 61° 101° (ESE) 16:31:31 437.445
DOVE 4 19 Feb 16:23:08 16:25:40 16° 66° (ENE) 16:28:12 437.250
XW-2B 19 Feb 16:26:24 16:28:34 15° 67° (ENE) 16:30:46 145.730 - 145.750
KAITUO 1B 19 Feb 16:28:08 16:29:48 13° 66° (ENE) 16:31:28 145.475/437.950
ISS 19 Feb 16:29:20 16:32:35 57° 35° (NE) 16:35:48 437.550
XW-2C 19 Feb 16:34:10 16:36:51 18° 68° (ENE) 16:39:32 145.795 - 145.815
MOZHAYETS 4 19 Feb 16:40:33 16:44:11 23° 293° (WNW) 16:47:47
LilacSat-2 19 Feb 16:43:14 16:46:24 24° 70° (ENE) 16:49:35 437.200
M-CUBED/EXP-1 PRIME 19 Feb 16:47:12 16:50:17 25° 103° (ESE) 16:53:33 437.505
HO-68 19 Feb 17:04:02 17:08:13 17° 55° (NE) 17:12:24 435.675
AO-7 19 Feb 17:04:33 17:06:49 11° 272° (W) 17:09:06 .
NUDT-PHONESAT 19 Feb 17:09:09 17:12:39 38° 73° (ENE) 17:16:10 437.300
Tancredo 1 19 Feb 17:10:22 17:13:30 50° 222° (SW) 17:16:36 437.200
RS-15 19 Feb 17:14:32 17:25:12 41° 106° (ESE) 17:36:12 29.354- 29.394
CUTE-I 19 Feb 17:15:09 17:20:21 60° 72° (ENE) 17:25:37 437.470
STARS 19 Feb 17:15:32 17:19:59 79° 283° (WNW) 17:24:23 437.465
PCSat 19 Feb 17:17:05 17:22:26 66° 115° (ESE) 17:27:49 145.827
CUBESAT XI-V 19 Feb 17:21:12 17:25:41 52° 286° (WNW) 17:30:07 437.345
BEESAT 3 19 Feb 17:32:06 17:35:33 28° 246° (WSW) 17:38:59 437.485
XW-2F 19 Feb 17:53:20 17:57:00 45° 261° (W) 18:00:42 145.980 - 146.000
XW-2D 19 Feb 17:53:54 17:57:33 41° 262° (W) 18:01:13 145.860 - 145.880
BEESAT 2 19 Feb 17:55:18 17:59:05 39° 244° (WSW) 18:02:50 435.950
XW-2B 19 Feb 17:58:52 18:02:26 37° 262° (W) 18:06:03 145.730 - 145.750
DOVE 4 19 Feb 17:59:08 18:03:04 39° 262° (W) 18:06:58 437.250
KAITUO 1B 19 Feb 17:59:47 18:03:25 44° 261° (W) 18:07:05 145.475/437.950
KKS-1 19 Feb 18:01:07 18:03:08 13° 297° (WNW) 18:05:09 437.445
CUTE 1.7 + AOD 2 19 Feb 18:01:42 18:05:00 22° 69° (ENE) 18:08:21 437.475
ISS 19 Feb 18:06:53 18:08:42 14° 230° (SW) 18:10:31 437.550
XW-2C 19 Feb 18:07:28 18:10:49 29° 263° (W) 18:14:14 145.795 - 145.815
LilacSat-2 19 Feb 18:17:35 18:20:37 22° 265° (W) 18:23:40 437.200
STRAND 1 19 Feb 18:21:34 18:24:54 17° 92° (E) 18:28:13 437.568
M-CUBED/EXP-1 PRIME 19 Feb 18:21:54 18:24:39 21° 295° (WNW) 18:27:32 437.505
XW-2A 19 Feb 18:33:25 18:36:46 84° 78° (ENE) 18:40:11 145.665 - 145.685
ZACube-1 19 Feb 18:41:51 18:42:04 10° 61° (ENE) 18:42:17 437.345
NUDT-PHONESAT 19 Feb 18:44:59 18:46:45 13° 268° (W) 18:48:32 437.300
CUBEBUG 2 19 Feb 18:46:33 18:50:21 30° 69° (ENE) 18:54:15 437.445
HO-68 19 Feb 18:47:43 18:54:55 86° 73° (ENE) 19:02:08 435.675
CUTE-I 19 Feb 18:57:31 19:00:47 16° 268° (W) 19:04:04 437.470
PCSat 19 Feb 19:02:24 19:06:19 20° 314° (NW) 19:10:15 145.827
SEEDS 19 Feb 19:10:32 19:14:47 88° 89° (E) 19:19:03 437.485
AAUSAT CUBESAT 2 19 Feb 19:19:41 19:23:45 53° 74° (ENE) 19:27:49 437.432
RS-15 19 Feb 19:25:21 19:37:09 62° 309° (NW) 19:49:26 29.354- 29.394
AO-73 19 Feb 19:30:10 19:34:01 31° 70° (ENE) 19:37:57 145.935
CUTE 1.7 + AOD 2 19 Feb 19:36:54 19:40:39 30° 263° (W) 19:44:28 437.475
UWE-3 19 Feb 19:37:18 19:41:37 70° 75° (ENE) 19:46:06 435.000/436.395/437.385
Oscar 11 19 Feb 19:45:06 19:49:09 39° 72° (ENE) 19:53:14 .
STRAND 1 19 Feb 19:59:21 20:04:23 54° 288° (WNW) 20:09:22 437.568
YUBILEINY 19 Feb 20:03:03 20:06:31 13° 58° (ENE) 20:09:59 435.215
ZACube-1 19 Feb 20:13:15 20:17:37 79° 259° (WSW) 20:22:08 437.345
DELFI C3 19 Feb 20:16:16 20:19:35 26° 70° (ENE) 20:22:54 145.870
CUBEBUG 2 19 Feb 20:23:33 20:26:58 22° 266° (W) 20:30:29 437.445
HO-68 19 Feb 20:39:18 20:43:24 16° 270° (W) 20:47:32 435.675
AAUSAT CUBESAT 2 19 Feb 20:58:02 20:59:31 12° 269° (W) 21:00:59 437.432
AO-73 19 Feb 21:06:48 21:10:15 23° 266° (W) 21:13:47 145.935
UNISAT 6 19 Feb 21:16:19 21:19:50 20° 93° (E) 21:23:18 437.425
TIGRISAT 19 Feb 21:18:42 21:22:11 20° 93° (E) 21:25:37 435.000
Oscar 11 19 Feb 21:22:33 21:25:26 17° 267° (W) 21:28:19 .
PRISM 19 Feb 21:28:33 21:32:37 67° 102° (ESE) 21:36:39 437.425
RS-15 19 Feb 21:43:31 21:53:00 25° 338° (NNW) 22:02:37 29.354- 29.394
DELFI C3 19 Feb 21:51:13 21:54:19 22° 265° (W) 21:57:26 145.870
YUBILEINY 19 Feb 21:56:25 22:05:09 69° 80° (E) 22:13:47 435.215
FO-29 19 Feb 22:12:30 22:19:48 42° 96° (E) 22:26:31 435.910
ESTCUBE 1 19 Feb 22:19:47 22:24:07 47° 73° (ENE) 22:28:27 437.505/2401.250
SO-50 19 Feb 22:29:07 22:32:12 18° 110° (ESE) 22:35:16 436.795
SPROUT 19 Feb 22:34:49 22:37:36 17° 66° (ENE) 22:40:25 437.525
AIST 2D 19 Feb 22:46:29 22:49:22 23° 95° (E) 22:52:14 435.315
UNISAT 6 19 Feb 22:52:16 22:56:38 39° 289° (WNW) 23:00:58 437.425
TIGRISAT 19 Feb 22:54:34 22:58:57 39° 289° (WNW) 23:03:19 435.000
VELOX 1 19 Feb 23:12:59 23:17:17 59° 74° (ENE) 23:21:37 145.980
DX 1 19 Feb 23:26:05 23:30:02 36° 71° (ENE) 23:34:01 434.975-435.025
O/OREOS (USA 219) 19 Feb 23:28:42 23:33:00 51° 108° (ESE) 23:37:22 437.305
DUCHIFAT 1 19 Feb 23:31:19 23:35:21 40° 98° (E) 23:39:22 145.980
EO-79 19 Feb 23:34:27 23:38:40 54° 100° (E) 23:42:51 145.935-145.965
POLYITAN 1 19 Feb 23:49:51 23:54:11 83° 104° (ESE) 23:58:28 437.675
50 SAT 19 Feb 23:50:44 23:54:14 64° 259° (WSW) 23:57:44 437.505
UKube-1 19 Feb 23:50:49 23:54:58 49° 73° (ENE) 23:59:07 .
QB50P2 19 Feb 23:52:33 23:56:52 85° 279° (W) 00:01:09 145.880/145.840
YUBILEINY 19 Feb 23:54:37 00:01:04 24° 279° (W) 00:07:31 435.215
NANOSAT C BR1 19 Feb 23:55:28 23:59:47 88° 108° (ESE) 00:04:02 145.865
FO-29 19 Feb 23:57:32 00:04:39 40° 295° (WNW) 00:11:19 435.910
ESTCUBE 1 19 Feb 23:58:27 00:01:09 16° 268° (W) 00:03:51 437.505/2401.250
RS-15 20 Feb 00:02:41 00:11:44 22° 15° (NNE) 00:20:40 29.354- 29.394
SO-50 20 Feb 00:07:42 00:12:17 51° 306° (NW) 00:16:48 436.795
SPROUT 20 Feb 00:09:14 00:13:12 39° 262° (W) 00:17:13 437.525
AIST 2D 20 Feb 00:19:50 00:22:28 19° 291° (WNW) 00:25:05 435.315
ITUPSAT 1 20 Feb 00:39:15 00:41:09 12° 61° (ENE) 00:43:03 437.325
JUGNU 20 Feb 00:44:32 00:45:04 10° 177° (S) 00:45:37 437.505
BEESAT 20 Feb 00:49:05 00:51:55 16° 63° (ENE) 00:54:45 436.000
VELOX 1 20 Feb 00:52:38 00:54:06 11° 269° (W) 00:55:35 145.980
BUGSAT 1 20 Feb 00:54:09 00:58:20 64° 286° (WNW) 01:02:32 437.445
DX 1 20 Feb 01:03:18 01:06:19 18° 266° (W) 01:09:21 434.975-435.025
DUCHIFAT 1 20 Feb 01:07:56 01:10:42 17° 294° (WNW) 01:13:26 145.980
O/OREOS (USA 219) 20 Feb 01:09:58 01:12:44 16° 305° (NW) 01:15:31 437.305
EO-79 20 Feb 01:11:52 01:13:57 13° 296° (WNW) 01:16:02 145.935-145.965
Gurwin Techsat 1B 20 Feb 01:25:24 01:30:16 35° 97° (E) 01:35:05 435.225
UKube-1 20 Feb 01:29:06 01:31:15 14° 268° (W) 01:33:24 .
Oscar 19 20 Feb 01:30:31 01:35:39 73° 103° (ESE) 01:40:45 437.125/150
ITAMSAT 1 20 Feb 01:54:17 01:54:53 10° 89° (E) 01:55:28 435.822/435.867
MOZHAYETS 4 20 Feb 02:03:57 02:07:57 29° 69° (ENE) 02:11:57
PCSat 20 Feb 02:05:55 02:11:06 43° 55° (NE) 02:16:15 145.827
ITUPSAT 1 20 Feb 02:13:31 02:18:19 75° 257° (WSW) 02:23:09 437.325
RS-15 20 Feb 02:16:24 02:28:20 50° 46° (NE) 02:39:47 29.354- 29.394
BEESAT 20 Feb 02:24:31 02:29:12 56° 259° (W) 02:33:56 436.000
CUBESAT XI-V 20 Feb 02:48:26 02:50:50 14° 63° (ENE) 02:53:13 437.345
Gurwin Techsat 1B 20 Feb 03:05:33 03:10:03 29° 293° (WNW) 03:14:32 435.225
AO-7 20 Feb 03:07:14 03:15:03 43° 100° (E) 03:22:48 .
Oscar 19 20 Feb 03:11:46 03:14:20 14° 299° (WNW) 03:16:53 437.125/150
KKS-1 20 Feb 03:19:37 03:23:52 49° 73° (ENE) 03:28:08 437.445
SRMSAT 20 Feb 03:19:52 03:20:50 10° 177° (S) 03:21:48 437.500
ITAMSAT 1 20 Feb 03:29:42 03:34:58 87° 283° (WNW) 03:40:11 435.822/435.867
M-CUBED/EXP-1 PRIME 20 Feb 03:33:10 03:35:57 25° 66° (ENE) 03:38:41 437.505
MOZHAYETS 4 20 Feb 03:41:10 03:45:03 26° 265° (W) 03:48:58
PCSat 20 Feb 03:49:51 03:54:14 25° 253° (WSW) 03:58:36 145.827
STARS 20 Feb 04:10:51 04:15:12 81° 74° (ENE) 04:19:35 437.465
AO-85 20 Feb 04:13:26 04:14:59 12° 109° (ESE) 04:16:32 145.980
CUBESAT XI-V 20 Feb 04:23:02 04:27:40 61° 259° (W) 04:32:19 437.345
RS-15 20 Feb 04:29:18 04:40:57 53° 250° (WSW) 04:52:09 29.354- 29.394
KKS-1 20 Feb 04:58:21 05:00:42 14° 268° (W) 05:03:03 437.445
AO-7 20 Feb 05:00:05 05:07:43 43° 298° (WNW) 05:15:21 .
M-CUBED/EXP-1 PRIME 20 Feb 05:08:22 05:10:27 15° 260° (W) 05:12:31 437.505
ITAMSAT 1 20 Feb 05:12:06 05:13:36 11° 302° (WNW) 05:15:05 435.822/435.867
XW-2F 20 Feb 05:27:08 05:29:53 19° 94° (E) 05:32:36 145.980 - 146.000
XW-2D 20 Feb 05:27:52 05:30:46 20° 94° (E) 05:33:39 145.860 - 145.880
XW-2B 20 Feb 05:32:38 05:35:42 22° 95° (E) 05:38:43 145.730 - 145.750
KAITUO 1B 20 Feb 05:32:42 05:35:22 18° 94° (E) 05:38:00 145.475/437.950
CUTE-I 20 Feb 05:33:36 05:38:02 25° 95° (E) 05:42:25 437.470
STRAND 1 20 Feb 05:36:24 05:40:24 23° 65° (ENE) 05:44:25 437.568
XW-2C 20 Feb 05:40:46 05:44:08 28° 96° (E) 05:47:27 145.795 - 145.815
AO-85 20 Feb 05:50:22 05:54:57 70° 303° (WNW) 05:59:13 145.980
LilacSat-2 20 Feb 05:50:50 05:54:30 40° 98° (E) 05:58:06 437.200
DOVE 4 20 Feb 05:57:25 06:01:54 53° 100° (E) 06:06:39 437.250
NUDT-PHONESAT 20 Feb 06:14:11 06:17:57 63° 101° (E) 06:21:40 437.300
HO-68 20 Feb 06:18:28 06:22:41 16° 90° (E) 06:26:51 435.675
SEEDS 20 Feb 06:56:34 06:59:02 15° 92° (E) 07:01:30 437.485
SO-50 20 Feb 07:00:42 07:03:17 15° 42° (NE) 07:05:53 436.795
XW-2F 20 Feb 07:00:45 07:04:02 27° 289° (WNW) 07:07:16 145.980 - 146.000
XW-2D 20 Feb 07:01:44 07:04:56 25° 290° (WNW) 07:08:06 145.860 - 145.880
KAITUO 1B 20 Feb 07:06:09 07:09:24 27° 289° (WNW) 07:12:37 145.475/437.950
XW-2B 20 Feb 07:06:44 07:09:48 23° 290° (WNW) 07:12:52 145.730 - 145.750
CUTE-I 20 Feb 07:13:10 07:18:09 39° 291° (WNW) 07:23:06 437.470
STRAND 1 20 Feb 07:14:29 07:19:18 41° 262° (W) 07:24:10 437.568
XW-2C 20 Feb 07:15:24 07:18:07 19° 292° (WNW) 07:20:49 145.795 - 145.815
BEESAT 3 20 Feb 07:20:25 07:24:12 55° 118° (ESE) 07:28:05 437.485
CUTE 1.7 + AOD 2 20 Feb 07:22:05 07:26:10 47° 99° (E) 07:30:13 437.475
LilacSat-2 20 Feb 07:26:22 07:28:24 14° 294° (WNW) 07:30:27 437.200
XW-2A 20 Feb 07:28:51 07:32:19 78° 283° (WNW) 07:35:46 145.665 - 145.685
UWE-3 20 Feb 07:28:52 07:31:50 17° 92° (E) 07:34:47 435.000/436.395/437.385
DOVE 4 20 Feb 07:36:31 07:39:13 16° 294° (WNW) 07:42:01 437.250
BEESAT 2 20 Feb 07:45:29 07:49:11 41° 116° (ESE) 07:52:56 435.950
ZACube-1 20 Feb 08:03:04 08:06:40 22° 94° (E) 08:10:13 437.345
HO-68 20 Feb 08:03:58 08:11:09 84° 287° (WNW) 08:18:18 435.675
CUBEBUG 2 20 Feb 08:13:42 08:18:30 81° 103° (ESE) 08:23:14 437.445
UNISAT 6 20 Feb 08:14:58 08:17:41 16° 64° (ENE) 08:20:28 437.425
PRISM 20 Feb 08:16:46 08:20:37 40° 72° (ENE) 08:24:27 437.425
TIGRISAT 20 Feb 08:17:14 08:19:53 16° 64° (ENE) 08:22:35 435.000
FO-29 20 Feb 08:24:52 08:29:26 19° 56° (NE) 08:34:14 435.910
SEEDS 20 Feb 08:30:58 08:34:54 40° 288° (WNW) 08:38:47 437.485
AAUSAT CUBESAT 2 20 Feb 08:37:52 08:41:58 70° 284° (WNW) 08:46:02 437.432
SO-50 20 Feb 08:39:47 08:44:17 75° 239° (WSW) 08:48:44 436.795
AO-73 20 Feb 08:54:22 08:58:58 75° 102° (ESE) 09:03:27 145.935
CUTE 1.7 + AOD 2 20 Feb 08:59:16 09:01:34 14° 295° (WNW) 09:03:52 437.475
BEESAT 3 20 Feb 08:59:51 09:02:09 15° 316° (NW) 09:04:29 437.485
UWE-3 20 Feb 09:04:00 09:08:31 47° 287° (WNW) 09:12:58 435.000/436.395/437.385
YUBILEINY 20 Feb 09:04:46 09:09:00 15° 76° (ENE) 09:13:13 435.215
ISS 20 Feb 09:08:37 09:11:28 27° 134° (SE) 09:14:20 437.550
Oscar 11 20 Feb 09:08:46 09:13:08 87° 284° (WNW) 09:17:27 .
BEESAT 2 20 Feb 09:24:18 09:27:08 19° 313° (NW) 09:30:01 435.950
DELFI C3 20 Feb 09:28:13 09:32:01 46° 99° (E) 09:35:47 145.870
ZACube-1 20 Feb 09:38:51 09:42:58 33° 290° (WNW) 09:47:03 437.345
O/OREOS (USA 219) 20 Feb 09:39:19 09:43:54 86° 66° (ENE) 09:48:29 437.305
Tancredo 1 20 Feb 09:47:23 09:50:37 76° 142° (SE) 09:53:52 437.200
UNISAT 6 20 Feb 09:49:42 09:53:58 48° 261° (W) 09:58:22 437.425
TIGRISAT 20 Feb 09:51:51 09:56:07 49° 261° (W) 10:00:31 435.000
CUBEBUG 2 20 Feb 09:52:57 09:54:24 11° 298° (WNW) 09:55:51 437.445
PRISM 20 Feb 09:53:44 09:56:03 15° 267° (W) 09:58:23 437.425
HO-68 20 Feb 09:53:46 09:57:49 16° 306° (NW) 10:01:51 435.675
FO-29 20 Feb 10:06:30 10:13:16 89° 258° (WSW) 10:20:53 435.910
ESTCUBE 1 20 Feb 10:16:15 10:16:45 10° 90° (E) 10:17:14 437.505/2401.250
DUCHIFAT 1 20 Feb 10:22:23 10:25:53 26° 69° (ENE) 10:29:25 145.980
EO-79 20 Feb 10:25:53 10:29:42 34° 71° (ENE) 10:33:33 145.935-145.965
AO-73 20 Feb 10:33:10 10:34:31 11° 298° (WNW) 10:35:52 145.935
POLYITAN 1 20 Feb 10:41:11 10:45:17 53° 74° (ENE) 10:49:26 437.675
QB50P2 20 Feb 10:43:50 10:47:59 61° 75° (ENE) 10:52:11 145.880/145.840
ISS 20 Feb 10:44:51 10:47:52 32° 330° (NNW) 10:50:54 437.550
NANOSAT C BR1 20 Feb 10:46:18 10:50:23 55° 74° (ENE) 10:54:32 145.865
AIST 2D 20 Feb 10:52:14 10:55:44 62° 260° (W) 10:59:17 435.315
YUBILEINY 20 Feb 10:55:28 11:04:18 81° 95° (E) 11:13:08 435.215
DELFI C3 20 Feb 11:04:39 11:06:23 13° 295° (WNW) 11:08:07 145.870
VELOX 1 20 Feb 11:05:56 11:07:34 12° 91° (E) 11:09:11 145.980
Oscar 19 20 Feb 11:11:03 11:12:55 12° 60° (ENE) 11:14:48 437.125/150
Tancredo 1 20 Feb 11:24:52 11:27:15 18° 338° (NNW) 11:29:37 437.200
BUGSAT 1 20 Feb 11:42:34 11:46:34 75° 74° (ENE) 11:50:38 437.445
ESTCUBE 1 20 Feb 11:49:32 11:54:00 69° 285° (WNW) 11:58:25 437.505/2401.250
SPROUT 20 Feb 11:55:37 11:59:34 35° 98° (E) 12:03:31 437.525
FO-29 20 Feb 11:55:40 11:59:23 15° 275° (W) 12:03:18 435.910
DUCHIFAT 1 20 Feb 11:58:05 12:01:29 24° 265° (W) 12:04:55 145.980
EO-79 20 Feb 12:02:37 12:05:33 18° 267° (W) 12:08:30 145.935-145.965
AO-7 20 Feb 12:19:15 12:22:02 12° 45° (NE) 12:24:50 .
POLYITAN 1 20 Feb 12:19:42 12:21:22 12° 269° (W) 12:23:04 437.675
QB50P2 20 Feb 12:23:32 12:24:10 10° 270° (W) 12:24:48 145.880/145.840
ISS 20 Feb 12:23:50 12:25:07 12° 349° (N) 12:26:24 437.550
NANOSAT C BR1 20 Feb 12:25:02 12:26:25 11° 269° (W) 12:27:50 145.865
VELOX 1 20 Feb 12:40:01 12:44:22 58° 286° (WNW) 12:48:41 145.980
Gurwin Techsat 1B 20 Feb 12:45:27 12:50:34 51° 71° (ENE) 12:55:43 435.225
Oscar 19 20 Feb 12:46:19 12:51:29 86° 254° (WSW) 12:56:41 437.125/150
50 SAT 20 Feb 12:49:37 12:52:59 49° 286° (WNW) 12:56:19 437.505
DX 1 20 Feb 12:50:34 12:54:57 79° 105° (ESE) 12:59:17 434.975-435.025
YUBILEINY 20 Feb 12:55:51 13:02:07 21° 295° (WNW) 13:08:26 435.215
ITAMSAT 1 20 Feb 13:09:48 13:13:00 17° 62° (ENE) 13:16:12 435.822/435.867
UKube-1 20 Feb 13:14:18 13:18:38 79° 285° (WNW) 13:22:56 .
SPROUT 20 Feb 13:32:08 13:35:13 20° 293° (WNW) 13:38:19 437.525
